GFSNW_250_spd_057.txt.gz
Wind_Speed
75 82 88 90 88 82 62 45 33 23 19 17 19 23 27 33 38 44 49 51 54 56 58 63 77 87 87 87 88 87 90 90 95 92 90 89 89 94 94 95 89 83 78 70
76 82 88 88 88 77 59 45 32 23 18 16 18 20 24 29 34 40 44 49 56 59 62 63 64 75 86 88 88 86 88 94 94 96 96 99 93 93 96 95 95 89 85 79
78 84 90 87 92 69 57 43 28 21 17 17 17 20 23 25 30 35 41 47 52 57 62 67 69 70 72 77 86 92 91 94 94 97 100 102 98 98 100 104 99 94 92 88
78 86 89 89 96 68 53 41 25 18 17 17 20 21 23 26 29 33 39 43 48 53 58 61 63 67 69 73 74 81 93 97 97 96 102 103 99 100 100 99 97 93 94 95
80 86 87 92 92 68 52 36 23 17 17 19 20 24 27 30 32 35 39 40 40 44 47 50 53 61 66 71 72 76 82 85 97 96 101 103 99 102 101 99 94 94 96 95
82 87 91 97 81 69 50 34 25 20 18 19 21 24 27 28 32 32 33 35 34 36 37 37 39 44 51 60 66 67 76 83 88 90 101 105 101 97 100 98 101 99 100 104
84 84 93 97 76 64 47 37 27 22 18 18 21 23 25 30 31 29 29 28 30 31 30 34 33 34 39 45 54 59 62 72 85 88 97 99 95 103 102 106 102 102 105 111
82 89 92 94 75 60 45 37 29 23 18 18 20 23 25 26 26 24 23 23 24 26 26 28 29 28 28 35 39 45 50 58 70 76 91 86 89 95 102 105 103 107 110 113
82 89 94 87 75 56 43 37 29 21 16 16 18 19 21 22 23 23 18 17 19 21 17 18 18 18 17 22 26 34 41 48 53 61 74 76 84 93 102 110 105 111 113 111
86 90 94 80 72 53 41 36 28 22 18 16 15 16 19 20 21 18 16 15 16 16 11 12 12 17 12 14 14 20 29 40 44 52 62 67 75 86 92 95 96 108 109 107
84 90 91 78 69 55 43 37 29 22 18 16 13 12 15 15 16 15 13 14 16 14 10 9 9 15 12 10 12 18 21 27 37 43 51 61 69 80 81 84 90 103 110 107
84 90 86 77 67 58 46 37 32 27 23 17 16 14 13 12 10 11 13 13 14 14 9 8 9 13 15 12 14 17 19 24 31 35 47 54 58 62 68 76 82 95 101 106
82 88 80 75 64 60 51 41 36 34 29 22 16 13 16 16 13 9 11 14 12 13 9 8 10 14 13 13 14 16 18 21 25 29 38 43 48 55 59 64 68 79 93 97
81 85 73 70 58 53 47 42 40 37 34 31 28 21 16 15 14 12 13 16 18 15 12 10 12 15 17 15 14 13 15 18 20 24 26 31 39 47 52 54 56 67 79 88
82 81 69 65 55 49 44 43 43 42 39 38 35 29 21 18 26 23 15 14 18 21 17 15 11 16 22 15 14 16 15 15 18 20 21 25 32 39 45 47 48 55 66 75
79 77 64 62 52 45 44 46 46 47 48 48 44 39 32 35 30 23 21 18 18 18 21 19 16 12 20 22 18 16 15 14 12 8 13 18 24 29 34 39 43 50 54 63
76 75 59 57 48 42 45 47 49 48 47 50 49 44 44 36 37 34 30 26 22 20 21 23 19 15 14 23 25 21 18 18 15 13 16 15 16 21 27 31 36 45 49 56
75 69 59 56 46 39 43 44 44 46 45 47 47 50 51 45 49 50 41 34 33 26 20 19 25 23 18 18 25 29 23 23 23 21 20 18 20 22 27 32 35 40 45 51
73 58 55 52 45 38 42 44 44 51 56 51 51 57 59 40 49 58 64 46 29 26 23 20 20 23 25 19 23 26 27 26 27 27 26 24 22 21 24 30 34 39 44 50
68 52 52 50 43 38 43 42 39 47 55 56 59 56 60 45 39 49 66 59 40 30 28 27 24 21 22 24 21 26 27 27 28 28 29 27 25 24 25 28 33 37 40 48
60 51 50 48 41 38 40 46 41 33 32 45 36 40 41 34 20 51 59 53 47 38 28 26 26 23 18 23 22 23 25 31 27 29 32 32 29 27 28 28 29 32 38 46
50 48 48 43 40 37 37 39 43 41 39 37 37 40 45 44 48 51 48 44 39 34 28 23 20 21 15 17 23 22 27 28 30 27 34 37 34 35 32 30 31 31 34 39
47 45 46 41 36 36 36 31 39 53 49 46 42 45 48 53 56 50 42 39 34 31 27 28 29 24 18 17 18 24 25 31 30 34 37 39 40 40 38 36 35 33 34 35
46 43 43 37 32 35 36 39 46 50 52 47 38 43 45 51 54 48 40 34 30 26 24 23 23 25 24 19 15 16 28 27 29 35 40 44 43 43 43 43 43 41 40 40
44 43 40 32 29 31 47 49 46 47 48 50 50 49 52 55 54 47 40 34 27 25 27 25 26 25 22 23 19 17 22 26 26 32 42 42 46 46 49 52 50 51 49 48
41 40 33 24 26 19 19 41 47 46 51 52 52 54 54 54 52 44 39 35 30 27 28 28 27 25 23 22 22 19 20 24 26 31 36 45 46 49 51 55 58 58 56 55
40 33 25 24 26 28 34 39 49 50 52 58 59 57 57 54 54 49 44 38 34 31 28 27 25 25 25 24 23 22 20 23 25 28 33 38 47 50 53 55 61 61 61 61

GFSNW_250_spd_060.txt.gz
Wind_Speed
65 69 70 77 80 86 67 58 41 31 20 15 16 19 22 26 34 43 48 51 53 56 60 64 68 80 88 91 90 90 93 96 99 94 96 98 100 100 96 91 85 83 79 83
67 65 73 76 85 87 61 51 39 25 19 14 16 18 21 26 29 34 42 50 55 56 57 59 63 67 73 83 90 90 92 94 98 99 101 101 102 104 100 97 94 89 83 89
64 71 75 82 84 72 60 48 35 23 16 15 16 19 19 22 28 32 39 45 50 54 58 62 62 64 67 72 82 91 93 93 98 103 106 102 100 101 102 100 96 94 92 94
69 74 78 85 89 65 57 43 31 21 13 15 17 18 21 22 25 29 34 39 45 50 54 58 62 64 66 70 73 82 93 96 98 103 109 107 104 103 102 101 101 97 95 98
70 73 82 87 82 67 51 39 28 21 17 15 17 18 19 23 26 27 31 36 40 44 50 54 55 59 64 71 73 75 79 91 99 102 108 111 108 105 103 99 104 104 100 100
72 77 84 91 72 62 48 33 27 22 17 17 18 19 20 22 25 29 32 34 32 38 41 45 49 54 59 63 66 73 78 81 87 99 104 109 107 106 109 106 103 107 104 104
72 81 83 92 70 58 42 33 27 21 17 15 17 20 21 24 26 29 29 28 29 34 33 33 37 43 48 53 57 61 70 80 87 89 98 102 101 106 111 109 113 113 107 106
78 82 89 90 70 57 43 36 29 23 16 13 14 17 20 21 21 21 22 23 25 24 24 25 27 34 38 42 47 54 58 65 75 85 93 94 97 107 110 112 114 115 110 109
77 82 88 89 72 60 49 37 32 26 20 16 14 15 17 19 20 15 14 15 17 16 17 22 26 30 31 31 37 43 50 56 58 68 81 89 92 95 101 109 108 110 110 112
77 84 88 86 74 63 55 42 34 29 24 21 19 19 18 18 17 14 11 10 9 12 16 19 22 25 26 24 29 29 38 45 50 56 64 75 82 90 94 94 97 109 111 112
73 82 86 82 71 59 55 50 39 33 26 21 19 18 19 21 18 16 14 10 10 12 15 17 19 20 19 16 19 23 26 32 38 48 54 58 67 76 82 84 86 98 108 112
70 77 82 76 67 54 50 48 43 36 31 26 22 17 16 20 19 16 14 12 13 16 17 17 18 18 19 18 16 19 19 23 29 37 45 47 54 63 69 74 78 93 100 110
70 75 78 69 63 51 47 44 41 40 37 35 30 15 10 18 18 15 15 16 16 18 20 21 20 20 22 22 20 18 18 19 22 27 34 38 45 51 57 63 68 81 93 98
68 74 75 62 58 46 42 40 39 40 39 40 43 35 27 26 26 27 26 20 18 21 23 23 22 21 22 24 23 21 20 21 23 24 26 27 34 41 48 53 57 69 82 91
67 72 73 55 54 43 39 36 36 43 42 42 41 45 35 32 28 27 28 22 27 26 25 27 27 25 24 22 24 26 25 25 24 24 23 23 29 34 40 46 53 61 69 79
67 70 69 53 52 42 39 41 37 37 40 39 41 40 42 39 33 26 32 33 17 20 23 29 26 29 29 28 24 28 30 27 24 25 24 23 24 30 34 39 48 53 62 68
64 70 63 52 51 42 38 40 36 35 39 39 40 49 50 45 44 47 42 37 38 15 24 24 23 24 27 31 31 29 29 30 29 28 25 23 25 27 28 30 37 49 56 62
64 69 55 51 49 40 33 38 41 48 41 45 44 47 41 45 44 49 51 46 41 36 32 25 21 25 23 27 29 35 31 29 32 29 29 28 26 28 28 30 33 41 49 56
63 67 50 49 47 38 32 31 43 49 44 46 42 39 37 39 32 36 46 47 48 48 41 33 26 24 22 25 28 31 34 29 30 33 31 30 30 29 28 29 31 35 40 44
61 64 48 47 43 35 37 36 42 42 46 49 48 42 41 40 40 45 42 36 41 45 42 33 31 24 22 22 27 28 32 30 28 32 33 30 34 32 30 30 29 31 35 39
61 61 47 45 38 30 35 42 44 44 46 47 48 49 47 46 48 49 44 37 34 33 30 28 27 24 16 23 25 23 26 30 29 31 35 32 33 35 34 31 30 27 29 35
59 52 44 41 30 26 26 33 50 53 49 53 54 51 49 50 51 52 46 41 34 30 29 27 26 22 14 16 19 21 22 22 24 31 35 33 32 34 35 32 29 24 27 28
56 44 41 38 29 25 29 33 43 49 51 56 60 57 52 51 51 53 48 39 35 31 28 27 27 26 20 18 19 19 19 22 21 28 31 36 31 33 34 32 28 29 27 30
53 40 38 29 22 25 36 39 42 46 49 53 60 61 54 51 52 52 50 45 40 34 29 30 29 27 25 22 21 22 21 21 22 23 30 33 36 33 35 36 32 31 29 29
45 38 28 19 15 18 39 45 45 48 54 55 59 65 60 55 51 52 48 44 41 37 32 29 27 26 24 22 19 19 22 21 22 19 27 30 35 36 37 37 37 33 32 31
38 29 19 16 20 35 46 47 51 60 63 62 64 67 61 59 53 51 52 48 43 40 34 29 28 27 26 24 24 21 20 22 22 20 22 29 33 37 38 39 39 39 36 33
31 16 13 23 27 36 42 49 56 62 68 70 70 72 69 62 54 50 51 51 47 44 42 38 35 32 23 18 22 22 20 21 20 22 23 26 31 36 38 43 42 41 44 40

GFSNW_250_spd_063.txt.gz
Wind_Speed
52 61 64 74 78 77 57 52 36 25 21 14 14 16 20 24 30 40 48 52 54 57 61 62 64 75 92 96 96 95 97 101 104 105 106 103 100 97 92 89 89 90 87 87
57 63 70 75 83 66 58 42 31 20 17 14 12 17 20 25 29 36 45 51 54 55 57 60 60 63 73 91 99 98 96 99 104 103 104 106 106 104 100 96 95 93 92 89
59 67 78 79 88 64 53 40 26 18 14 12 11 14 18 23 28 32 38 48 54 58 57 58 62 63 65 73 90 100 102 101 104 106 106 104 104 105 105 104 102 100 94 89
63 74 79 87 87 65 48 36 25 19 13 12 12 13 15 18 25 31 36 39 47 55 58 59 59 64 67 69 73 86 97 102 104 106 106 107 107 105 105 105 107 106 101 94
66 74 80 85 84 64 45 32 26 19 12 11 14 16 18 19 23 26 30 37 42 47 52 59 63 65 66 70 73 76 84 95 104 107 107 106 107 110 109 109 108 107 105 103
68 76 83 87 83 67 46 33 28 21 15 11 12 15 19 21 24 26 29 32 38 43 48 54 59 64 68 71 72 74 78 82 91 101 108 110 109 111 114 114 112 110 109 107
70 77 85 88 83 68 55 40 31 22 17 13 10 11 13 16 19 23 26 28 31 33 38 47 52 55 59 66 73 76 78 80 83 87 95 103 112 114 114 115 115 113 111 110
71 79 79 88 85 70 60 52 38 30 20 15 12 10 9 12 14 16 19 21 25 29 30 34 38 42 48 55 62 69 76 80 84 85 90 93 97 107 116 116 116 116 115 111
68 76 79 86 81 68 59 56 46 37 28 19 14 11 10 8 8 12 13 16 18 17 18 22 26 30 37 41 46 53 61 69 75 82 87 90 93 96 104 114 115 114 117 116
67 73 76 81 79 67 58 53 46 38 32 26 22 20 18 15 11 8 9 10 10 12 13 14 17 21 25 29 35 43 50 55 59 65 74 83 90 93 96 99 101 112 114 118
65 72 74 76 74 63 53 50 44 39 37 32 22 18 21 23 20 13 8 5 7 9 10 13 13 14 18 21 27 34 39 44 50 55 60 67 78 83 87 93 97 99 108 115
65 72 70 73 67 58 50 46 41 38 37 32 29 28 24 19 14 13 13 11 7 8 11 13 15 16 15 16 21 27 32 35 40 45 50 56 64 68 76 82 89 92 95 98
64 64 68 70 62 56 47 43 41 35 30 29 29 26 22 20 18 17 13 10 9 9 12 11 12 18 19 21 23 24 29 33 38 41 41 47 52 57 63 71 77 80 85 89
59 59 66 68 57 53 45 41 39 39 29 31 32 28 27 28 16 13 15 14 10 7 10 12 13 10 15 22 26 26 28 30 32 33 35 40 43 47 53 59 64 67 73 77
52 59 63 65 55 50 41 36 40 40 40 38 39 37 37 35 32 30 21 18 9 12 12 14 15 19 16 19 27 31 30 29 32 34 35 35 35 41 45 48 54 59 62 66
52 59 63 58 55 48 38 35 40 43 45 45 39 34 34 37 39 39 36 40 33 17 17 18 19 21 21 23 26 29 32 31 32 35 36 35 34 34 35 46 46 55 58 60
53 59 58 58 51 45 36 34 34 38 42 46 47 43 39 37 37 38 41 42 41 33 19 25 20 21 21 23 27 27 27 33 35 34 35 36 35 33 32 35 39 50 54 57
53 56 57 55 46 39 28 35 38 36 41 47 49 47 42 41 42 43 45 43 38 34 34 33 28 23 24 26 27 28 27 31 32 34 33 35 37 36 32 31 34 38 44 53
51 52 58 51 42 37 30 32 39 38 43 45 49 50 45 41 42 45 47 42 36 33 32 31 27 24 24 26 27 30 29 31 30 32 33 33 35 38 34 31 33 34 37 42
47 50 53 46 39 31 32 28 36 42 45 47 50 50 46 43 43 45 47 46 37 32 26 21 21 20 19 22 24 26 29 30 28 29 31 31 32 37 36 35 33 33 32 36
44 51 52 42 34 25 28 34 40 46 50 53 53 55 55 53 50 49 50 49 44 37 31 25 21 23 19 17 25 28 30 32 31 31 30 29 30 32 37 37 36 33 32 29
44 50 50 37 23 23 31 38 45 49 58 61 60 61 64 63 60 53 51 50 45 39 33 26 22 20 20 20 21 23 26 30 32 29 29 30 31 30 31 37 36 34 30 29
45 50 46 30 14 21 28 38 46 51 57 63 66 67 68 69 69 61 54 49 46 41 38 33 31 28 25 23 21 20 20 24 26 26 27 26 30 30 27 33 34 34 29 26
47 47 36 20 7 18 29 37 45 50 56 61 66 70 73 73 71 70 63 54 48 44 41 36 32 28 25 26 26 26 24 23 23 24 25 26 25 30 27 30 33 33 28 26
45 43 26 13 7 13 25 37 43 49 58 61 68 69 73 78 78 73 70 59 51 46 42 36 31 27 24 25 27 25 25 22 24 25 25 27 27 28 30 28 32 33 30 28
42 29 19 8 7 15 28 36 38 43 56 58 66 70 72 76 80 76 73 63 54 49 46 41 35 30 25 18 19 25 27 29 30 30 29 28 28 28 30 28 31 34 34 30
34 21 19 13 8 18 25 29 34 38 52 63 64 69 70 76 79 79 73 62 52 49 48 44 40 36 31 27 22 19 22 27 27 27 26 27 27 29 27 28 31 33 35 31

GFSNW_250_spd_069.txt.gz
Wind_Speed
87 80 74 69 75 80 69 61 49 33 24 20 17 14 12 17 22 26 29 31 37 46 52 59 63 68 73 80 90 98 102 105 105 103 101 97 96 94 92 91 89 86 84 81
91 86 77 71 74 78 76 62 50 34 24 18 16 13 11 15 19 22 27 32 39 42 49 58 62 65 69 75 85 95 103 106 106 104 103 100 97 95 94 92 90 89 88 85
90 86 76 76 75 80 80 63 49 37 26 18 12 11 11 14 18 20 24 30 36 44 51 57 59 62 64 69 79 90 98 103 106 105 103 102 100 98 95 95 92 90 89 88
89 83 75 75 75 79 80 67 51 39 29 20 12 8 10 13 17 21 23 26 33 41 49 56 58 59 59 62 69 82 91 99 102 104 104 102 102 101 98 96 94 93 90 89
94 82 74 72 75 79 81 68 54 42 30 22 15 9 8 14 17 21 24 26 30 37 47 55 58 60 61 60 62 71 85 94 100 104 107 107 105 106 105 103 99 97 95 93
89 76 73 67 70 74 81 76 57 51 37 25 17 12 9 12 17 20 25 28 30 36 43 52 58 62 63 62 62 65 73 89 98 101 105 106 107 106 106 106 106 104 101 98
87 73 70 65 66 71 78 77 60 50 40 31 25 18 14 11 12 18 23 28 33 35 40 49 56 60 63 64 64 66 69 75 90 99 103 105 106 107 108 107 107 106 105 103
81 75 67 63 62 69 74 73 58 49 44 35 31 21 17 13 11 12 16 23 28 33 40 44 51 57 62 65 66 68 71 74 78 87 98 102 104 108 110 111 110 109 109 108
75 67 60 58 59 65 68 67 51 47 43 36 34 24 18 15 11 10 10 14 19 26 34 41 47 51 57 64 67 69 72 74 77 79 85 92 101 107 109 110 111 112 112 111
72 63 56 56 56 63 64 63 48 44 42 36 28 25 25 18 13 9 6 7 13 20 26 33 40 47 53 58 62 67 71 74 76 77 80 82 86 95 104 110 111 113 114 114
64 59 53 52 54 59 61 57 46 43 42 39 32 23 19 19 15 13 13 9 8 9 15 25 33 39 46 53 58 62 65 67 72 75 78 81 83 86 89 94 101 109 115 117
58 52 48 46 52 55 57 55 44 41 39 37 33 28 22 21 17 9 12 12 13 12 14 18 25 32 38 43 49 55 60 63 66 69 73 78 82 84 85 85 89 94 100 108
54 47 45 42 47 52 55 50 43 39 37 35 32 31 28 24 20 17 16 12 9 15 19 24 24 29 34 37 40 42 49 56 61 63 68 72 75 79 81 84 88 92 95 97
46 43 42 39 43 47 50 45 39 35 30 30 37 38 36 33 29 26 24 24 22 19 16 25 32 30 30 34 40 44 46 46 48 56 62 67 71 74 78 80 83 86 90 94
40 40 38 37 43 44 47 40 27 23 25 32 38 43 43 44 44 41 34 30 29 27 25 22 27 32 35 33 36 38 42 44 47 52 53 57 63 67 72 74 76 77 80 83
34 35 32 33 40 42 42 36 20 21 23 29 36 44 45 48 50 49 45 37 29 27 27 22 21 25 31 35 38 33 37 39 41 45 48 52 56 57 61 65 68 71 73 76
31 30 28 32 37 39 42 38 25 22 29 26 36 43 45 50 52 55 54 46 32 27 27 22 18 18 21 26 33 37 39 37 42 44 43 45 48 51 57 59 59 62 67 69
26 27 28 33 34 37 39 29 16 23 24 31 37 43 46 49 55 57 60 57 40 31 30 27 21 15 15 23 25 32 48 48 48 47 45 42 44 46 48 54 57 59 60 62
24 26 28 33 34 35 35 19 23 24 22 30 39 44 50 51 58 59 62 61 48 36 34 31 28 24 21 20 21 24 27 29 35 37 36 39 40 41 42 44 48 51 52 53
23 25 25 32 33 38 32 28 31 26 26 33 35 42 45 52 55 58 60 60 57 41 41 35 31 29 25 24 23 24 26 30 33 33 34 33 33 34 35 39 44 50 52 50
25 24 21 31 34 38 35 26 20 26 30 34 34 37 43 50 55 59 63 63 61 48 42 41 37 35 31 29 27 26 27 27 27 29 29 30 31 31 32 36 40 45 47 47
19 18 20 28 30 36 32 21 18 25 31 32 34 39 45 48 56 63 67 68 66 55 51 44 39 36 34 32 30 28 27 27 29 29 30 31 31 32 33 31 34 41 42 44
17 17 21 29 33 33 29 20 18 25 32 36 37 42 46 52 58 64 67 71 70 63 55 49 42 36 34 35 32 30 27 26 26 26 27 27 29 32 35 34 35 36 35 38
18 18 24 29 33 32 22 22 27 30 34 40 41 44 45 50 56 64 67 72 70 63 57 52 44 38 33 31 30 28 29 29 27 26 26 26 26 28 32 31 32 34 31 32
15 21 27 31 34 31 24 20 29 31 38 44 44 46 48 51 56 64 68 74 71 64 57 52 43 38 34 31 29 28 27 26 27 27 27 26 26 23 25 28 30 33 32 33
17 25 29 33 34 29 18 16 26 34 40 44 43 42 41 48 57 66 73 75 71 63 56 53 45 38 34 33 31 29 28 28 28 27 28 29 29 26 24 22 26 30 34 32
19 26 31 34 29 24 18 15 22 29 35 34 34 40 43 49 58 67 71 71 70 60 56 53 46 41 37 34 32 30 29 28 28 29 29 27 26 25 22 18 23 26 31 30

GFSNW_250_spd_072.txt.gz
Wind_Speed
87 94 91 85 76 79 76 78 74 52 37 23 14 8 8 10 15 20 26 33 42 52 59 64 72 81 87 90 91 90 89 88 92 101 104 105 102 96 91 89 90 90 83 77
85 94 99 87 77 81 76 77 78 55 37 25 15 8 3 7 11 16 21 26 34 39 47 55 62 66 72 76 80 83 86 88 90 95 103 108 106 101 96 93 94 93 90 84
90 90 92 86 79 79 74 76 80 56 39 26 17 11 5 4 10 14 18 23 27 36 39 45 53 59 64 68 73 77 81 84 88 93 101 106 107 105 100 98 96 97 99 89
86 93 87 82 77 78 74 75 77 60 43 30 19 13 10 7 8 15 17 20 24 29 37 41 45 50 57 63 67 72 76 81 87 89 94 100 107 107 104 101 99 97 95 96
88 91 85 77 74 71 69 73 76 61 50 33 25 14 10 10 9 11 17 20 23 28 33 38 43 48 54 57 61 64 70 75 80 86 94 99 105 107 107 104 101 99 97 97
87 86 80 75 67 66 64 69 73 66 52 40 31 19 11 6 10 13 14 19 22 26 32 37 41 47 52 58 60 63 67 70 76 84 91 100 105 110 110 109 107 104 104 98
86 78 70 66 63 62 60 64 70 62 52 46 34 22 15 9 5 9 16 18 22 24 28 35 41 47 52 58 60 63 64 66 72 77 88 95 99 106 111 111 109 109 106 103
84 76 69 59 58 57 57 61 66 60 49 44 41 28 22 14 8 4 8 16 22 25 30 32 37 44 52 58 62 62 64 65 66 69 80 86 97 103 108 111 111 111 109 107
82 72 58 53 53 52 53 57 62 57 44 42 38 32 24 20 12 7 6 10 15 23 28 32 37 41 46 55 61 64 66 67 67 67 72 80 87 99 105 109 113 113 112 111
80 69 54 48 49 48 51 55 59 54 42 40 35 29 23 20 17 12 7 6 12 17 23 30 35 40 45 52 58 63 68 70 71 70 72 75 81 93 101 108 110 112 114 115
76 59 47 42 44 44 49 52 58 51 42 39 33 26 23 18 15 13 12 10 7 10 18 26 31 37 42 48 54 60 66 70 73 73 74 74 76 81 91 99 107 111 116 116
67 46 38 37 40 40 46 49 54 47 42 36 34 29 28 26 22 17 13 12 11 12 13 17 24 32 38 43 48 54 60 65 70 74 76 76 76 77 80 85 96 107 113 115
52 35 32 33 35 36 44 49 52 42 38 33 32 27 32 33 32 27 24 18 16 15 19 18 22 25 31 35 42 48 54 58 63 66 69 73 77 80 82 85 87 92 101 111
36 27 27 30 31 33 41 43 47 34 34 32 24 28 32 35 37 38 38 32 23 17 16 18 22 28 30 33 36 42 46 50 53 58 61 64 68 72 79 85 89 91 94 98
23 23 24 26 29 32 39 40 43 34 27 32 21 27 33 36 40 42 41 41 35 26 19 20 23 23 28 29 33 39 38 43 48 51 51 53 58 65 69 73 79 85 90 95
19 21 22 23 26 32 39 38 36 29 22 20 24 26 34 40 40 42 41 43 45 29 22 22 22 23 22 26 29 24 30 39 43 48 49 53 55 56 58 60 65 71 76 83
17 19 20 20 26 31 37 36 30 21 25 28 23 25 33 40 43 42 43 41 39 35 30 31 28 23 21 21 26 25 27 31 40 39 43 48 50 52 54 57 59 62 66 71
16 17 18 18 26 29 34 35 19 23 30 21 26 26 32 36 39 42 44 42 39 37 38 39 35 31 26 22 22 25 28 31 37 39 44 43 44 47 48 49 50 56 62 66
15 15 17 17 24 27 31 34 27 23 17 21 25 30 36 38 40 42 46 46 45 45 48 49 39 35 31 29 25 23 26 30 35 37 41 48 53 57 53 50 51 53 54 58
13 15 19 19 21 24 30 32 27 18 26 26 27 29 38 46 46 48 50 53 54 50 53 56 47 40 36 32 30 27 25 26 29 34 38 41 45 48 50 50 50 53 54 56
12 15 16 18 21 24 31 31 27 19 27 25 25 35 43 45 50 54 49 53 55 52 58 60 52 43 36 28 26 28 27 28 29 30 32 38 40 40 43 46 47 48 51 52
13 16 15 17 19 26 31 31 26 23 29 27 34 39 43 50 50 50 46 52 56 55 59 59 50 42 37 30 27 27 25 24 26 28 30 33 37 39 40 40 41 44 49 49
15 16 17 19 20 27 33 36 33 24 26 32 36 39 45 51 43 46 47 53 60 59 62 65 51 42 35 31 28 25 23 23 23 25 28 30 31 33 36 39 39 40 41 44
16 12 15 18 23 30 36 37 32 28 29 35 36 41 45 41 43 47 52 56 63 63 64 65 50 43 37 31 29 28 25 24 23 24 27 28 29 31 34 37 39 40 39 39
11 11 15 21 27 32 37 32 27 21 21 24 33 38 35 41 47 54 55 59 66 63 64 64 52 46 40 36 32 30 28 27 26 26 26 27 28 29 31 32 33 36 37 40
12 14 16 22 29 34 30 24 20 13 12 22 30 30 39 46 49 52 55 63 67 63 65 62 52 48 42 39 35 34 31 29 28 28 28 28 29 28 27 28 29 31 34 35
8 13 19 26 29 27 16 8 8 11 13 15 22 34 40 46 47 49 57 66 64 63 66 59 55 48 43 39 36 34 31 28 27 27 26 25 25 25 25 26 26 29 31 33

GFSNW_250_spd_075.txt.gz
Wind_Speed
93 89 90 91 91 83 77 73 69 73 54 40 25 15 14 16 21 28 37 46 58 68 79 91 91 83 85 86 88 90 87 84 82 84 93 92 93 94 93 90 88 88 90 91
96 92 91 91 92 87 76 72 68 72 57 43 29 16 12 10 15 21 28 35 43 55 67 77 89 88 88 87 86 87 88 87 89 83 85 91 92 95 95 95 96 92 93 92
94 98 96 88 84 79 74 69 66 70 63 42 31 19 11 9 10 14 20 26 32 41 51 64 74 87 93 89 89 90 90 91 89 90 93 91 91 91 93 97 97 94 96 96
94 95 97 91 82 72 67 66 65 67 61 42 34 22 12 7 9 12 15 20 25 31 40 51 58 69 75 86 95 95 93 93 92 89 89 90 87 89 92 96 99 105 111 101
89 90 92 87 75 68 60 61 62 66 56 41 36 25 18 10 6 12 15 17 21 26 31 38 51 58 62 66 75 88 97 97 93 91 92 92 91 91 90 93 100 106 111 99
86 88 86 77 67 63 55 57 59 63 52 43 34 29 21 14 8 8 13 18 19 22 26 32 39 45 52 58 63 68 73 84 92 96 99 98 96 95 95 98 101 110 114 101
86 84 87 68 62 57 51 52 55 59 53 45 42 32 20 16 11 8 9 15 19 22 23 28 33 40 45 50 54 60 65 69 77 84 87 89 92 92 96 99 101 107 111 103
84 84 77 62 56 47 45 49 50 57 52 39 46 35 25 16 12 8 7 9 16 19 24 26 30 35 40 46 51 56 61 66 71 75 75 81 79 84 92 95 100 107 109 111
87 75 64 61 50 40 40 45 49 54 49 40 49 36 26 22 14 7 8 8 10 16 22 26 29 33 37 42 47 53 58 63 68 71 74 78 80 78 83 93 98 103 106 113
79 63 60 54 39 35 37 42 47 52 44 42 49 37 31 26 22 18 9 8 9 13 18 23 27 32 36 41 46 51 56 61 65 70 73 77 73 83 86 91 95 97 104 109
65 60 51 41 30 30 36 38 45 47 37 41 44 32 30 27 27 25 20 16 11 11 15 20 24 29 35 40 44 50 57 62 67 70 73 74 72 83 86 87 91 95 102 108
64 52 37 28 25 27 33 35 42 43 35 37 35 26 29 30 30 27 28 23 17 15 14 16 20 26 30 36 42 48 53 58 65 72 73 73 76 80 80 83 87 93 97 104
47 36 29 21 21 24 29 35 38 39 33 32 31 33 26 28 29 32 33 32 27 19 13 13 17 22 27 33 38 43 49 55 60 64 69 75 75 78 79 81 81 83 89 97
35 28 21 19 19 19 26 33 37 35 29 30 25 29 26 28 31 33 32 30 26 23 18 16 17 20 24 28 33 39 43 49 55 60 65 69 74 77 79 81 82 81 83 87
27 22 18 17 16 17 25 31 34 31 25 26 29 22 24 31 32 34 35 32 27 22 20 20 24 24 24 24 25 28 34 43 48 54 59 64 67 73 77 80 82 83 85 86
22 20 17 17 15 14 24 32 33 28 21 27 23 21 23 31 35 36 41 38 32 32 30 26 26 30 26 25 25 25 28 33 44 50 49 55 60 67 71 75 78 81 86 88
20 19 15 17 15 14 23 32 30 25 23 23 19 21 30 34 36 40 45 47 43 40 39 37 34 36 34 29 29 28 26 27 33 43 48 51 54 57 60 64 70 76 80 84
17 17 17 15 13 13 23 30 28 26 23 22 20 26 27 34 39 44 47 50 44 45 45 41 41 42 42 35 32 28 28 29 30 35 41 48 53 54 57 60 63 67 70 74
15 15 15 15 14 14 21 26 29 25 26 26 31 33 32 36 39 46 48 48 48 48 51 45 44 44 51 39 36 31 28 27 30 31 34 39 45 48 53 55 59 61 64 68
14 15 14 15 13 16 21 24 29 31 26 27 32 35 30 36 43 46 50 46 50 50 51 51 47 49 51 38 35 30 28 27 26 31 33 36 40 44 49 50 55 57 58 62
18 14 14 15 14 16 20 23 28 32 31 28 33 36 35 38 38 44 42 48 50 53 53 51 48 52 53 42 37 30 26 26 27 29 32 36 39 40 43 47 51 55 59 62
16 15 16 15 17 19 21 25 30 31 32 30 30 37 36 37 39 42 43 50 51 53 54 51 55 56 54 45 39 32 27 25 27 28 30 33 36 39 42 46 48 51 53 55
15 15 18 19 18 20 23 27 30 35 35 29 29 30 27 28 37 42 47 48 49 53 54 55 59 57 55 49 40 32 28 28 27 28 30 33 34 36 39 43 46 50 52 53
19 20 17 16 17 19 23 28 35 38 30 26 18 16 27 32 39 45 47 48 50 52 57 60 63 62 58 50 40 33 31 29 28 29 30 31 33 36 38 40 43 45 47 49
21 20 16 15 17 21 26 31 36 28 22 17 12 17 24 29 37 43 49 51 56 60 61 61 64 65 62 50 40 34 31 30 30 31 30 31 32 34 35 36 40 41 42 44
25 22 17 16 18 25 29 34 27 22 16 11 14 20 25 32 38 44 48 54 54 58 60 62 62 64 56 46 41 37 34 32 31 31 32 33 33 33 34 33 34 37 39 41
17 12 12 17 23 28 31 25 20 17 9 12 20 27 31 38 37 41 44 51 51 54 58 60 61 57 49 44 40 36 33 33 33 32 31 31 32 32 33 33 32 33 35 38